Regional Weather Roundup
Issued by NWS

Home | Current Version | Previous Version | Text Only | Print | Product List | Glossary On
Versions: 1 2 3 4 5 6 7 8 9 10 11 12 13 14 15 16 17 18 19 20 21 22 23 24 25 26 27 28 29 30 31 32 33 34 35 36 37 38 39 40 41 42 43 44 45 46 47 48 49 50
000
ASUS43 KLSX 231059
RWRMO

WEATHER SUMMARY FOR MISSOURI
NATIONAL WEATHER SERVICE SPRINGFIELD MO
600 AM CDT THU OCT 23 2014

NOTE: "FAIR" INDICATES FEW OR NO CLOUDS BELOW 12,000 FEET WITH NO
       SIGNIFICANT WEATHER AND/OR OBSTRUCTIONS TO VISIBILITY.
       CURRENT SKY AND/OR WEATHER CONDITIONS ARE NOT AVAILABLE FOR
       CHILLICOTHE AND FARMINGTON.

MOZ001>031-035>038-043-044-053-054-231200-
...NORTHERN AND WESTERN MISSOURI...

CITY           SKY/WX    TMP DP  RH WIND       PRES   REMARKS
KANSAS CTY INT CLOUDY    57  56  96 S9        30.09F
KANSAS C DTWN  LGT RAIN  59  55  87 S9        30.09F
LEE`S SUMMIT   LGT RAIN  56  53  90 S3        30.12S
ST JOSEPH      CLOUDY    57  56  96 S6        30.07F
CHILLICOTHE      N/A     55  48  77 S8        30.12F
KIRKSVILLE     CLOUDY    50  45  83 S7        30.14R

$$
MOZ066>068-077>081-088>096-101>105-231200-
...SOUTHWEST MISSOURI...

CITY           SKY/WX    TMP DP  RH WIND       PRES   REMARKS
SPRINGFIELD    CLOUDY    52  44  74 S10       30.16R
JOPLIN         CLOUDY    57  51  80 S5        30.14S

$$
MOZ032>034-039>042-045>050-055>058-069>072-231200-
...CENTRAL MISSOURI...

CITY           SKY/WX    TMP DP  RH WIND       PRES   REMARKS
COLUMBIA       CLOUDY    46  42  86 S7        30.17R
JEFFERSON CITY CLOUDY    45  41  86 SE5       30.18S
ROLLA          CLOUDY    45  40  82 S10       30.17S
SEDALIA        CLOUDY    55  46  71 S10       30.15S
OSAGE BEACH    CLOUDY    48  41  76 SE8       30.16F

$$
MOZ051-052-059>065-231200-
...EAST CENTRAL MISSOURI...

CITY           SKY/WX    TMP DP  RH WIND       PRES   REMARKS
ST LOUIS INTL  PTCLDY    43  38  82 SE6       30.20F
SPIRIT OF STL  CLEAR     35  35 100 CALM      30.19S
ST CHARLES     PTCLDY    40  38  93 E7        30.20S

$$
MOZ072>076-082>087-097>100-106>115-231200-
...SOUTH CENTRAL AND SOUTHEAST MISSOURI...

CITY           SKY/WX    TMP DP  RH WIND       PRES   REMARKS
CAPE GIRARDEAU CLEAR     35  35 100 CALM      30.22S
FARMINGTON     CLEAR     34  34 100 CALM      30.22S
POPLAR BLUFF   PTCLDY    39  35  86 CALM      30.20S
WEST PLAINS    PTCLDY    37  35  92 CALM      30.20S

$$



USA.gov is the U.S. government's official web portal to all federal, state and local government web resources and services.